Simultaneous Nadir Overpasses (SNOs) Predictions

Prediction of SNOs between LANDSAT-8 and METOP-B Satellite Orbit:

Table of predicted SNOs for the next 14.0 days since TLE Epoch: 5/20/2023
Index Date (LANDSAT-8) Time (LANDSAT-8) Lat,Lon (LANDSAT-8) SZA (LANDSAT-8 ) Date (METOP-B) Time (METOP-B) Lat,Lon (METOP-B) SZA (METOP-B ) Distance(km) Time Diff (sec)
1 05/21/2023 16:59:14 81.18, -33.92 63.28 05/21/2023 16:58:50 81.19, -33.88 63.28 0.93 24
2 05/21/2023 17:48:40 -81.20, 134.03 116.68 05/21/2023 17:49:29 -81.21, 134.15 116.64 2.07 49
3 05/24/2023 12:33:30 81.19, 32.60 62.75 05/24/2023 12:33:09 81.19, 32.48 62.72 2.11 21
4 05/24/2023 13:22:56 -81.21,-159.42 117.21 05/24/2023 13:23:48 -81.21,-159.46 117.19 0.75 52
5 05/27/2023 08:07:45 81.18, 98.96 62.23 05/27/2023 08:07:27 81.18, 98.77 62.20 3.22 18
6 05/27/2023 08:57:11 -81.21, -93.04 117.72 05/27/2023 08:58:06 -81.20, -93.14 117.71 1.67 55
7 05/30/2023 03:42:00 81.19, 165.52 61.80 05/30/2023 03:41:45 81.19, 165.37 61.77 2.44 15
8 05/30/2023 04:31:26 -81.21, -26.46 118.16 05/30/2023 04:32:24 -81.21, -26.50 118.14 0.69 58
9 06/01/2023 23:16:15 81.19,-128.10 61.38 06/01/2023 23:16:03 81.19,-128.09 61.38 0.52 12



Historial Predications of SNOs between LANDSAT-8 and METOP-B
